Showing default

DODECAPOLE 2, 1510

Orbit data source: Space-Track

DODECAPOLE 2, 1510 is a payload satellite owned by NRL (US) in LEO that was launched on Fri, 13 Aug 1965 UTC via a THOR ABLESTAR launch vehicle from the Air Force Western Test Range (AFWTR). Payload-class satellites include a variety of spacecraft equipped with specific instruments for various scientific and technological missions. These include communications satellites like Starlink; space stations such as the ISS; scientific satellites like the Hubble; Earth observation satellites from companies like Planet Labs, Umbra, and HawkEye 360; GPS; miniature CubeSats for education and research; and military/defense satellites.

Loading next visibility...
Identifier
1510, 1965-065C
Orbit
LEO
Last TLE update
9 hours ago
Origin
Manufacturer
NRL
Mission
Defense Calibration
Bus & Motor
NRL 9", Unknown motor
Mass
4 kg wet, 4 kg dry
Launch date (UTC)
1965-08-13 (60 years ago)
Launch vehicle
THOR ABLESTAR
Launch site
Air Force Western Test Range (AFWTR)
Object type
Payload
Rocket body
Debris
Shape & HBR
Sphere + 12 Rod, 15.2 m
Radar Cross Section
0.071 m², Large (>1 m²)

Expand to show TLE details & history

TLE from 9 hours ago
0 DODECAPOLE 2
1 01510U 65065C   25128.83659982  .00004710  00000-0  27485-2 0  9997
2 01510  90.0575  22.2687 0040846  34.4720 325.9100 14.07911449976219
Epoch: 2025-05-08T20:04Z
Definitive object data (Epoch: 2025-05-08T20:04:42.224Z)
Latitude
-0.00003°
Longitude
-145.80861°
Altitude
845.092 km
Speed
7.443 km/s
True Right ascension
01h 29m 04s
True Declination
0° 00' 00"
Sunlit
Object was in daylight at TLE epoch
Visualization TLE readout
Latitude
67.81902°
Longitude
-145.94654°
Altitude
853.904 km
Speed
7.444 km/s
Apparent Right ascension
01h 12m 50s
Apparent Declination
18° 50' 56"
Sunlit
Object is in daylight
Visualization observer readout
Local Sidereal Time
13:04:04
Azimuth
357.577° N
Elevation
-31.199°
Doppler factor
1
Orbital elements
Apogee altitude
893.072 km
Perigee altitude
833.914 km
Semi-major axis
7,241.63 km
Eccentricity
0.0040846
Inclination
90.0575°
RAAN
22.2687°
Arg. of periapsis
34.472°
True anomaly
325.64654°
Mean anomaly
325.91°
Eccentric anomaly
325.77838°
Mean motion
3.52199 °/min
BSTAR
0.0027485
Orbital period
102.21 mins
Loading maneuver chart data...
Loading SW <> Apogee altitude chart data...
Loading historical data...
Loading historical data...
Loading historical data...
Loading historical data...
Loading historical data...
Loading historical data...
Loading historical data...

DODECAPOLE 2 Visibility forecast

Observer location: undefined°, undefined°

Span
Click to sort rows by Start time (UTC) header in descending order
Start Az.
Max El. time (UTC)
Max El. Az.
Max El.
End time (UTC)
End Az.
11 mins2025-05-09 05:10:29.700Z3.971° NNE2025-05-09 05:16:29.700Z154.549° SSE43.966°2025-05-09 05:21:29.700Z180.697° SSW
8 mins2025-05-09 16:40:29.700Z145.112° SSE2025-05-09 16:44:29.700Z73.241° E34.572°2025-05-09 16:48:29.700Z14.842° NNE
7 mins2025-05-09 18:23:29.700Z237.528° WSW2025-05-09 18:26:29.700Z277.219° WNW20.348°2025-05-09 18:30:29.700Z326.202° NNW
|